Flag for Canada Weather past 2 weeks in Steinbach, Manitoba, Canada

Now
71 °F

Mild.


Feels Like: 71 °F
Forecast: 53 / 68 °F
Wind: 6 mph from Southwest

Location: Winnipeg The Forks

Current Time: Aug 28, 2014 at 11:18:07 PM

Latest Report: Aug 28, 2014 at 10:00 PM


Visibility: N/A

Pressure: 29.77 "Hg

Humidity: 81%

Dew point: 65 °F

Location of SteinbachLocation

Historic Weather in Steinbach — Graph

°F

Steinbach temperature yesterday

Maximum temperature yesterday: 75 °F (at 4:00 PM)
Minimum temperature yesterday: 48 °F (at 6:00 AM)
Average temperature yesterday: 62 °F

Past Weeks' High & Low Weather Summary

 TemperatureHumidityPressure
High90 °F (Aug 15, 4:00 PM)99% (Aug 22, 10:00 AM)30.18 "Hg (Aug 22, 10:00 AM)
Low48 °F (Aug 27, 6:00 AM)38% (Aug 27, 5:00 PM)29.58 "Hg (Aug 24, 7:00 PM)
Average67 °F76%29.89 "Hg
* Reported Aug 13 9:00 PM — Aug 28 9:00 PM, Steinbach, Weather by CustomWeather, © 2014

Note: Actual official high and low records may vary slightly from our data, if they occured in-between our weather recording intervals... More about our weather records

Advertising

Steinbach weather history for previous 24 hours

 ConditionsComfort  
Time TempWeatherWind HumidityBarometerVisibility
9:00 PM
Aug 28
73 °FMild.5 mph75%29.77 "HgN/A
8:00 PM75 °FMild.7 mph67%29.76 "HgN/A
7:00 PM78 °FWarm.5 mph65%29.76 "HgN/A
6:00 PM80 °FWarm.6 mph60%29.77 "HgN/A
5:00 PM81 °FWarm.6 mph57%29.78 "HgN/A
4:00 PM80 °FWarm.5 mph60%29.80 "HgN/A
3:00 PM79 °FWarm.6 mph60%29.81 "HgN/A
2:00 PM77 °FWarm.3 mph63%29.84 "HgN/A
1:00 PM76 °FMild.5 mph63%29.86 "HgN/A
12:00 PM73 °FMild.5 mph68%29.88 "HgN/A
11:00 AM71 °FMild.3 mph71%29.90 "HgN/A
10:00 AM68 °FMild.3 mph77%29.91 "HgN/A
9:00 AM65 °FMild.3 mph80%29.92 "HgN/A
8:00 AM62 °FMild.5 mph84%29.93 "HgN/A
7:00 AM61 °FCool.3 mph85%29.94 "HgN/A
6:00 AM62 °FCool.3 mph83%29.95 "HgN/A
5:00 AM61 °FCool.3 mph83%29.96 "HgN/A
4:00 AM61 °FCool.3 mph82%29.96 "HgN/A
3:00 AM61 °FCool.2 mph81%29.97 "HgN/A
2:00 AM58 °FCool.1 mph85%29.98 "HgN/A
1:00 AM61 °FCool.1 mph74%30.00 "HgN/A
12:00 AM61 °FCool.2 mph74%30.01 "HgN/A
11:00 PM
Aug 27
62 °FCool.2 mph70%30.01 "HgN/A
Weather by CustomWeather, © 2014

See weather overviewHow to use our weather pages